Location: Marsån
(66.4167°N, 22.2833°E)
Time: 10:24:36
(UTC+00:00)

SPOT 5 - Pass Details

Date: 24 February 2024
Orbit: 621 x 809 km, 98.1° (Epoch: 16 April)

Event Time Altitude Azimuth Distance (km) Brightness Sun altitude
Exits shadow 19:14:00 38° 195° (SSW) 996 3.4 -23.0°
Maximum altitude 19:15:30 60° 256° (WSW) 765 3.1 -23.1°
Drops below altitude 10° 19:20:08 10° 336° (NNW) 2,147 6.1 -23.5°
Sets 19:22:29 0° 341° (NNW) 3,098 7.0 -23.7°
